Probability
23 6 0 0 3 0 0 0 0 0 0 0 6 23 39 48 23 3 6 29 68 100 100 100 100 100 100 100 100 100 100 100 100 100 100 100 100 100 100 100 100 100 97 97 97 97 100 100 100
6 0 0 0 3 0 0 0 0 0 0 0 0 19 35 71 42 32 29 55 87 100 100 100 100 100 100 100 100 100 100 100 100 100 100 100 100 100 100 100 100 100 100 100 97 100 100 97 100
3 0 0 0 6 0 0 0 0 0 0 0 0 0 35 71 52 35 39 84 100 100 100 100 100 100 100 100 100 100 100 100 100 100 100 100 100 100 100 100 100 100 100 100 100 97 97 94 100
0 0 0 0 0 3 6 3 0 0 0 0 0 16 39 81 65 35 61 90 100 100 100 100 100 100 100 100 100 100 100 100 100 100 100 100 100 100 100 100 100 100 100 100 100 97 97 97 97
0 0 0 0 0 0 3 3 0 0 0 0 10 29 65 68 61 58 87 100 100 100 100 100 100 100 100 100 100 100 100 100 100 100 100 100 100 100 100 100 100 100 100 100 100 97 97 97 97
0 0 0 0 0 0 0 0 0 6 6 6 13 32 65 58 52 74 94 100 100 100 100 100 100 100 100 100 100 100 100 100 100 100 100 100 100 100 100 100 100 100 100 97 97 97 97 100 100
0 0 0 0 0 0 0 3 3 6 6 6 16 55 68 61 55 68 90 100 100 100 100 100 100 100 100 100 100 100 100 100 100 100 100 100 100 100 100 100 100 100 97 97 97 97 97 97 100
0 0 0 0 0 0 3 3 6 19 19 16 35 58 71 68 58 68 94 100 100 100 100 100 100 100 100 100 100 100 100 100 100 100 100 100 100 100 100 100 100 100 97 97 97 97 97 97 97
0 0 0 0 0 0 0 3 13 26 23 26 29 52 74 77 68 77 94 100 100 100 100 100 100 100 100 100 100 100 100 100 100 100 100 100 100 100 100 100 100 100 97 97 97 97 97 97 97
0 0 0 0 0 0 10 13 19 32 32 48 65 74 84 84 77 71 71 94 97 100 97 97 97 94 94 94 100 100 100 100 100 100 100 100 100 100 100 97 97 97 97 97 97 97 97 97 97
0 0 0 0 3 3 10 13 35 35 42 48 74 87 87 90 87 84 74 65 81 90 97 94 94 90 94 94 94 94 90 97 100 100 100 100 97 97 97 97 97 97 97 97 97 97 97 97 97
0 0 0 0 3 3 6 23 39 42 48 65 81 87 90 97 100 90 81 71 74 77 87 77 87 87 90 90 90 87 90 90 90 94 97 94 94 94 94 97 97 84 94 94 90 90 94 94 94
0 0 0 0 10 19 26 39 45 55 68 87 87 90 87 87 84 81 77 61 52 61 74 74 84 90 87 77 81 81 84 84 81 84 84 84 90 84 84 71 68 68 68 77 71 77 84 81 81
0 0 0 3 23 35 45 48 45 58 74 77 77 71 74 74 71 58 61 71 71 65 71 74 71 74 74 71 65 58 58 65 61 58 65 61 65 65 52 42 39 42 39 45 52 55 55 58 55
0 0 0 10 10 35 65 68 55 58 71 74 74 81 74 65 58 52 58 65 61 65 58 68 58 55 48 42 45 39 39 35 26 26 32 32 42 45 42 29 26 23 29 29 29 35 35 39 39
0 0 0 0 10 23 52 58 55 52 61 65 71 74 68 61 61 58 52 45 45 48 39 35 52 35 32 26 19 16 16 16 16 19 19 23 29 26 16 16 13 13 13 13 16 16 19 23 23
0 0 0 6 10 32 48 55 48 48 58 52 48 58 61 58 55 52 48 45 42 42 29 29 32 32 26 19 13 13 10 10 16 13 13 10 16 16 10 10 6 3 0 0 0 0 0 0 0
0 0 6 13 13 39 45 45 39 42 45 52 52 52 55 52 45 48 45 32 29 29 29 19 16 13 10 10 10 6 10 0 6 6 10 6 6 10 6 6 3 0 0 0 0 0 0 0 0
0 0 13 23 26 26 29 39 32 35 35 35 29 29 26 26 35 35 29 35 29 26 26 26 16 10 6 6 6 6 3 0 0 0 0 3 3 3 3 0 0 0 0 0 0 0 0 0 0
0 3 10 16 26 26 23 23 23 19 29 29 26 26 26 19 26 26 26 23 23 26 26 19 13 10 3 3 0 0 0 0 0 0 0 0 0 0 0 0 0 0 0 0 0 0 0 0 0
0 0 3 16 16 13 16 16 16 19 16 23 23 23 19 19 19 19 16 19 23 23 13 13 10 3 0 0 0 0 0 0 0 0 0 0 0 0 0 0 0 0 0 0 0 0 0 0 0
0 0 3 6 3 6 0 3 6 6 10 13 19 16 19 13 13 13 13 13 16 13 6 6 3 3 3 3 3 3 3 0 0 0 0 0 0 0 0 0 0 0 0 0 0 0 0 0 0
0 0 0 0 0 0 0 0 0 0 6 3 10 16 16 13 10 10 13 10 10 10 10 6 3 3 3 3 3 3 3 0 0 0 0 0 0 0 0 0 0 0 0 0 0 0 0 0 0
0 0 0 0 0 0 0 0 0 0 0 0 3 10 6 6 6 10 10 10 10 10 6 3 3 3 3 3 3 3 3 0 0 0 0 0 0 0 0 0 0 0 0 0 0 0 0 0 0
0 0 0 0 0 0 0 0 0 0 0 0 0 3 3 6 6 6 3 3 3 3 3 0 3 3 0 0 0 0 0 0 0 0 0 0 0 0 0 0 0 0 0 0 0 0 0 0 0
0 0 0 0 0 0 0 0 0 0 0 0 0 0 3 0 0 3 0 0 0 0 0 0 0 0 0 0 0 0 0 0 0 0 0 0 0 0 0 0 0 0 0 0 0 0 0 0 0
0 0 0 0 0 0 0 0 0 0 0 0 0 0 0 0 0 0 0 0 0 0 0 0 0 0 0 0 0 0 0 0 0 0 0 0 0 0 0 0 0 0 0 0 0 0 0 0 0
0 0 0 0 0 0 0 0 0 0 0 0 0 0 0 0 0 0 0 0 0 0 0 0 0 0 0 0 0 0 0 0 0 0 0 0 0 0 0 0 0 0 0 0 0 0 0 0 0
0 0 0 0 0 0 0 0 0 0 0 0 0 0 0 0 0 0 0 0 0 0 0 0 0 0 0 0 0 0 0 0 0 0 0 0 0 0 0 0 0 0 0 0 0 0 0 0 0
0 0 0 0 0 0 0 0 0 0 0 0 0 0 0 0 0 0 0 0 0 0 0 0 0 0 0 0 0 0 0 0 0 0 0 0 0 0 0 0 0 0 0 0 0 0 0 0 0
Height
5913 5913 5913 5913 5913 5912 5910 5910 5909 5908 5908 5908 5907 5907 5907 5907 5908 5910 5907 5905 5905 5905 5904 5904 5903 5903 5902 5901 5901 5901 5901 5901 5901 5901 5901 5901 5901 5901 5901 5900 5900 5900 5900 5900 5899 5899 5899 5899 5898
5913 5912 5913 5912 5911 5910 5910 5909 5908 5908 5908 5907 5907 5907 5906 5906 5907 5906 5905 5905 5905 5904 5904 5903 5903 5902 5902 5901 5901 5900 5900 5900 5900 5900 5900 5900 5900 5900 5899 5899 5899 5899 5899 5899 5898 5898 5898 5898 5898
5912 5911 5912 5911 5909 5909 5908 5907 5907 5906 5907 5906 5906 5906 5906 5906 5906 5905 5905 5904 5904 5904 5903 5903 5902 5901 5901 5900 5900 5900 5900 5899 5899 5899 5899 5898 5898 5898 5898 5898 5897 5897 5897 5897 5897 5897 5897 5897 5897
5910 5910 5910 5909 5907 5906 5905 5905 5905 5905 5906 5905 5905 5905 5905 5905 5904 5904 5904 5903 5903 5903 5902 5902 5901 5900 5900 5900 5899 5899 5899 5898 5898 5898 5897 5897 5896 5896 5896 5896 5895 5895 5895 5895 5895 5895 5895 5895 5896
5908 5907 5907 5905 5904 5903 5902 5903 5903 5904 5903 5903 5903 5903 5903 5903 5903 5903 5903 5902 5902 5902 5901 5901 5900 5899 5899 5898 5898 5898 5897 5897 5896 5896 5896 5895 5895 5894 5894 5894 5893 5893 5893 5893 5893 5893 5893 5893 5894
5905 5904 5904 5902 5901 5900 5899 5900 5901 5901 5901 5901 5901 5901 5901 5902 5902 5902 5901 5901 5901 5901 5900 5899 5899 5898 5897 5897 5896 5896 5896 5895 5895 5894 5894 5893 5893 5892 5892 5891 5891 5891 5891 5891 5891 5891 5891 5891 5891
5901 5900 5899 5898 5897 5896 5896 5896 5897 5898 5898 5898 5899 5899 5899 5900 5900 5900 5900 5900 5899 5899 5899 5898 5897 5897 5896 5895 5895 5894 5894 5893 5893 5892 5891 5891 5890 5890 5889 5889 5888 5888 5888 5888 5887 5887 5888 5888 5888
5895 5896 5895 5894 5893 5892 5892 5892 5893 5894 5894 5895 5896 5897 5897 5898 5898 5898 5898 5898 5898 5897 5897 5896 5895 5894 5894 5893 5892 5892 5891 5890 5890 5889 5889 5888 5888 5887 5887 5886 5885 5885 5884 5884 5884 5884 5884 5884 5884
5889 5891 5890 5889 5888 5887 5887 5888 5889 5890 5891 5892 5893 5894 5895 5895 5895 5895 5895 5895 5895 5894 5894 5893 5892 5892 5891 5890 5890 5889 5888 5887 5887 5886 5886 5885 5884 5884 5883 5883 5882 5881 5881 5880 5880 5880 5880 5880 5880
5883 5884 5884 5883 5882 5882 5882 5884 5885 5887 5887 5888 5890 5891 5891 5892 5892 5893 5893 5892 5892 5891 5891 5890 5889 5888 5887 5887 5886 5885 5884 5883 5882 5882 5882 5881 5880 5880 5880 5879 5878 5877 5877 5876 5876 5875 5875 5875 5876
5875 5877 5877 5877 5877 5878 5878 5880 5881 5883 5884 5885 5886 5887 5888 5888 5889 5889 5889 5889 5888 5888 5887 5886 5885 5885 5884 5883 5882 5881 5879 5878 5877 5877 5877 5876 5876 5875 5875 5874 5874 5873 5872 5871 5871 5870 5870 5870 5870
5869 5870 5870 5871 5871 5873 5874 5876 5877 5879 5880 5881 5883 5884 5885 5885 5885 5885 5885 5885 5884 5884 5883 5882 5881 5880 5879 5878 5877 5875 5874 5873 5872 5871 5871 5870 5870 5869 5869 5869 5868 5867 5866 5865 5865 5864 5864 5864 5865
5862 5863 5864 5865 5866 5868 5870 5871 5873 5875 5876 5878 5879 5880 5880 5881 5881 5881 5881 5880 5879 5879 5878 5877 5876 5875 5873 5872 5871 5871 5869 5868 5866 5866 5865 5864 5863 5863 5862 5862 5861 5860 5860 5859 5859 5858 5858 5858 5858
5858 5858 5859 5860 5862 5864 5866 5867 5869 5871 5872 5874 5875 5876 5876 5877 5877 5877 5877 5876 5875 5874 5873 5873 5871 5869 5868 5867 5866 5865 5864 5862 5861 5860 5860 5859 5858 5857 5856 5856 5855 5854 5853 5853 5853 5852 5852 5851 5852
5855 5855 5855 5856 5858 5860 5862 5864 5865 5867 5869 5870 5871 5872 5872 5873 5873 5873 5872 5872 5871 5870 5869 5868 5866 5865 5863 5863 5861 5860 5859 5858 5857 5856 5855 5854 5852 5852 5851 5850 5849 5847 5847 5846 5846 5845 5845 5845 5845
5854 5853 5853 5854 5855 5857 5860 5861 5862 5864 5865 5866 5867 5868 5868 5868 5868 5868 5868 5867 5867 5866 5865 5864 5863 5861 5860 5858 5857 5856 5854 5853 5852 5851 5850 5848 5846 5845 5844 5843 5842 5841 5840 5840 5839 5839 5838 5838 5838
5853 5853 5852 5853 5853 5854 5856 5857 5859 5860 5861 5862 5863 5863 5863 5862 5863 5864 5863 5863 5862 5862 5861 5860 5858 5857 5855 5854 5852 5851 5850 5847 5846 5845 5844 5842 5840 5838 5837 5836 5835 5834 5833 5832 5831 5831 5831 5831 5830
5853 5852 5851 5851 5851 5852 5853 5855 5856 5857 5857 5858 5859 5859 5859 5859 5859 5859 5859 5859 5858 5858 5857 5856 5854 5853 5851 5849 5848 5847 5845 5841 5839 5838 5837 5834 5832 5830 5829 5828 5827 5826 5825 5824 5823 5823 5823 5823 5822
5853 5852 5850 5850 5850 5851 5851 5852 5853 5853 5854 5854 5855 5855 5855 5855 5855 5855 5855 5855 5854 5854 5853 5852 5850 5849 5847 5845 5843 5841 5839 5836 5834 5832 5829 5827 5825 5823 5821 5819 5818 5817 5816 5815 5814 5814 5814 5814 5814
5853 5851 5850 5849 5849 5849 5849 5849 5849 5849 5850 5850 5851 5851 5850 5850 5851 5851 5851 5851 5851 5850 5849 5848 5846 5844 5842 5840 5838 5835 5832 5830 5827 5824 5821 5818 5816 5814 5812 5810 5808 5806 5805 5805 5804 5804 5804 5804 5804
5853 5852 5850 5849 5848 5848 5848 5847 5846 5846 5846 5847 5847 5848 5847 5847 5847 5848 5848 5848 5847 5846 5845 5843 5841 5839 5837 5834 5831 5828 5825 5822 5819 5816 5813 5810 5807 5804 5802 5800 5798 5797 5795 5794 5794 5793 5793 5794 5794
5853 5852 5850 5849 5847 5847 5848 5846 5845 5844 5844 5845 5845 5845 5845 5845 5845 5845 5845 5845 5844 5843 5841 5839 5837 5834 5831 5829 5825 5822 5818 5815 5812 5808 5804 5801 5798 5795 5792 5790 5788 5786 5785 5784 5783 5783 5783 5783 5784
5853 5852 5850 5848 5847 5846 5846 5845 5846 5844 5844 5844 5844 5844 5844 5844 5844 5844 5843 5842 5841 5839 5837 5835 5833 5830 5827 5823 5819 5815 5811 5807 5803 5799 5795 5792 5788 5785 5782 5780 5778 5776 5775 5774 5773 5772 5772 5773 5773
5854 5852 5851 5849 5848 5846 5846 5846 5846 5844 5844 5844 5844 5844 5843 5843 5843 5842 5841 5840 5838 5836 5834 5831 5828 5824 5821 5817 5812 5808 5804 5799 5795 5791 5787 5783 5779 5776 5773 5770 5768 5767 5765 5764 5763 5762 5762 5762 5763
5854 5853 5852 5850 5848 5847 5846 5846 5847 5845 5844 5844 5843 5843 5842 5842 5841 5840 5838 5837 5834 5832 5829 5826 5822 5818 5814 5809 5804 5800 5795 5790 5786 5782 5778 5774 5770 5767 5764 5761 5759 5757 5755 5754 5753 5752 5752 5752 5753
5853 5853 5852 5851 5849 5848 5847 5846 5847 5845 5844 5843 5843 5842 5841 5840 5839 5837 5835 5833 5830 5827 5824 5820 5816 5811 5806 5801 5796 5791 5787 5782 5777 5773 5769 5765 5761 5758 5755 5752 5749 5747 5745 5744 5743 5742 5741 5741 5742
5853 5852 5851 5850 5849 5848 5847 5847 5846 5845 5843 5842 5841 5841 5839 5838 5836 5834 5831 5828 5825 5822 5818 5813 5809 5804 5799 5794 5789 5784 5778 5773 5768 5764 5759 5755 5751 5748 5745 5742 5739 5736 5734 5733 5731 5731 5730 5730 5730
5852 5851 5851 5850 5849 5848 5847 5846 5845 5844 5842 5841 5840 5838 5836 5834 5832 5830 5827 5824 5820 5816 5812 5807 5802 5797 5792 5786 5781 5775 5770 5764 5759 5755 5750 5746 5742 5738 5734 5731 5728 5725 5723 5721 5720 5718 5718 5717 5718
5851 5851 5850 5849 5848 5847 5846 5847 5844 5842 5841 5839 5837 5835 5833 5831 5828 5825 5822 5818 5814 5810 5805 5800 5795 5789 5784 5778 5773 5767 5761 5756 5751 5746 5741 5736 5732 5728 5724 5721 5717 5714 5711 5709 5707 5706 5705 5704 5704
5849 5849 5849 5848 5847 5846 5845 5847 5842 5840 5838 5836 5834 5832 5829 5826 5823 5820 5816 5812 5808 5804 5799 5793 5788 5782 5777 5771 5765 5759 5753 5748 5742 5737 5732 5727 5722 5718 5714 5710 5706 5703 5699 5697 5694 5692 5691 5691 5691
Wind_Speed
6 5 5 5 4 5 4 3 3 3 4 6 7 8 8 9 8 8 6 6 5 5 4 4 4 4 5 5 5 5 5 5 5 5 5 5 5 6 6 6 6 6 6 6 6 6 6 6 6
8 8 8 7 6 6 5 4 3 2 3 4 5 6 7 8 8 8 7 6 6 5 4 4 4 4 4 4 5 5 5 5 5 5 5 5 6 6 6 6 6 6 6 6 5 5 5 4 4
10 10 9 10 9 8 7 6 5 4 3 4 4 5 7 9 9 9 8 6 5 5 5 5 5 4 4 4 4 5 5 5 5 6 6 7 7 8 8 7 7 7 7 7 6 6 5 5 4
13 12 12 11 12 12 11 10 8 6 5 4 4 6 7 9 10 10 9 7 5 5 5 5 5 5 5 5 6 5 5 5 6 6 7 8 8 9 9 9 9 9 8 8 8 8 7 7 6
15 14 14 14 14 14 14 13 11 9 8 6 5 6 8 10 11 10 9 8 7 7 7 6 6 6 7 7 7 7 6 7 7 8 8 9 10 10 11 11 11 11 10 10 10 10 10 9 9
18 17 16 16 16 17 16 15 13 11 10 9 8 8 9 11 11 11 10 8 8 8 9 8 8 8 8 8 8 8 8 8 9 9 10 10 11 12 12 12 13 13 13 12 12 12 12 12 12
21 19 18 18 18 19 19 17 16 14 12 11 10 10 10 11 12 11 11 10 9 9 10 11 11 10 10 9 9 9 9 10 10 10 11 11 12 13 13 14 14 14 14 14 14 14 14 14 14
24 21 20 20 21 22 22 20 19 17 15 13 12 10 10 11 12 12 11 11 12 11 11 12 12 12 12 11 11 11 11 12 12 12 12 13 14 14 15 15 16 16 16 16 16 16 16 16 16
25 23 21 22 25 25 25 24 21 20 17 15 13 12 12 12 13 13 13 12 13 14 14 14 14 14 14 14 13 12 13 14 14 14 15 15 15 16 17 17 17 18 18 18 19 19 18 17 18
26 23 23 25 27 28 27 26 24 22 19 17 15 14 14 14 14 15 15 14 15 15 16 17 16 16 16 17 16 16 16 16 17 17 17 18 18 18 19 20 20 20 21 21 21 21 21 20 20
25 24 25 27 29 30 29 28 26 24 22 19 17 16 16 15 16 17 17 17 17 18 19 19 18 18 18 18 19 20 21 20 19 20 21 20 21 21 21 22 22 23 23 24 24 23 23 23 23
24 24 26 28 29 30 30 29 27 26 24 21 19 18 17 18 18 19 19 18 19 19 20 21 20 20 20 21 22 23 23 23 22 22 23 24 24 24 24 24 24 25 26 26 26 26 26 26 26
22 22 24 27 29 30 31 31 29 27 25 23 21 19 19 20 20 20 20 19 20 20 20 22 22 21 21 22 23 23 25 26 25 26 25 26 26 25 25 26 27 27 27 28 28 27 28 27 27
18 18 20 23 27 29 30 30 30 28 26 24 22 21 22 22 22 21 21 20 20 22 22 21 23 23 23 23 24 24 25 24 25 24 25 26 27 28 27 27 28 29 28 27 28 28 29 28 29
13 14 17 20 23 26 29 29 28 27 26 25 23 22 22 22 23 22 22 22 21 21 21 21 22 22 22 22 23 23 24 25 25 25 26 26 27 28 28 30 31 30 30 30 29 29 29 29 30
10 11 13 16 20 23 25 25 24 25 25 25 24 24 24 23 23 21 21 20 19 19 20 20 20 20 20 22 23 24 24 25 26 26 27 28 29 30 30 30 31 30 31 31 30 29 30 30 30
8 10 12 14 17 20 22 23 23 24 24 24 24 24 24 23 21 20 19 19 18 19 19 19 19 20 21 22 23 24 25 26 26 27 28 29 30 31 31 32 32 32 31 31 31 31 32 31 30
7 8 10 13 14 17 19 21 21 22 23 22 22 22 23 22 21 18 18 17 17 17 18 19 19 21 21 22 23 25 26 27 28 29 30 31 32 32 32 33 33 33 33 33 33 34 33 33 32
6 6 7 9 11 13 15 17 19 20 21 20 19 19 20 20 18 17 17 15 16 16 17 18 19 20 21 23 24 26 28 29 31 32 33 33 33 34 34 35 35 35 35 35 35 35 35 34 34
7 7 6 6 7 10 12 13 15 17 19 18 18 19 19 17 16 15 14 14 15 16 17 18 19 21 23 24 26 28 30 31 33 34 35 35 36 36 36 37 37 37 37 37 36 36 36 35 35
6 7 6 6 6 7 9 11 12 14 14 15 16 17 16 14 13 12 11 12 14 15 17 19 21 23 25 27 29 31 32 33 34 35 36 37 37 38 38 37 37 37 37 37 37 37 36 36 36
6 7 7 6 5 5 6 7 7 8 9 10 11 11 10 9 10 11 12 13 15 16 19 20 22 24 27 29 31 32 33 34 35 36 37 38 38 39 39 38 38 37 37 37 37 37 37 36 36
6 6 6 5 3 2 3 4 3 3 4 5 6 7 8 8 8 9 11 13 15 17 19 21 23 25 27 29 31 32 34 35 36 36 37 37 37 37 38 37 37 36 36 36 37 37 37 36 36
6 6 6 5 5 3 2 0 0 2 3 5 5 7 8 9 10 11 13 14 16 19 21 23 25 27 29 30 32 33 34 35 36 36 36 36 35 35 35 35 35 35 35 35 35 35 36 36 36
5 6 5 5 5 4 3 2 2 2 3 3 5 6 8 10 12 14 15 17 18 20 22 24 26 28 30 32 34 34 35 35 35 34 34 34 34 34 34 34 34 34 34 34 34 35 35 36 36
6 6 6 5 4 3 1 1 2 3 4 4 6 8 10 12 13 15 16 18 20 22 24 26 28 31 32 34 34 34 35 34 34 34 33 33 33 33 33 34 34 35 35 35 36 36 37 37 37
6 7 7 6 4 3 1 1 2 4 5 6 7 9 11 12 13 15 17 19 22 24 26 28 31 33 34 34 34 34 34 34 34 34 34 34 34 34 34 35 35 35 36 36 37 37 38 39 39
6 7 7 6 5 3 2 2 4 5 7 8 9 10 11 13 14 16 18 21 23 25 28 30 32 34 34 35 35 35 35 35 35 35 35 35 35 35 35 35 36 36 37 37 38 38 39 40 40
7 7 8 7 5 4 3 3 5 7 9 10 11 11 12 14 16 18 20 22 25 27 30 32 34 35 35 36 36 36 36 36 36 36 36 36 35 35 35 35 36 36 37 38 38 39 39 39 40
8 9 8 7 6 6 7 6 7 9 10 11 12 13 14 15 17 20 22 25 27 29 32 34 35 36 36 36 37 37 37 37 37 37 36 36 36 36 36 37 37 38 38 39 39 39 39 40 41
Wind_Direction
324 309 296 289 287 293 295 300 313 328 357 0 5 12 15 9 1 354 347 344 349 346 344 347 356 5 9 14 15 16 19 23 23 19 15 11 5 2 3 2 358 356 359 2 3 6 16 26 32
318 306 292 285 276 276 272 272 295 305 348 348 352 360 1 356 351 345 341 338 335 331 327 331 343 353 358 360 358 357 353 352 352 349 346 344 340 338 339 338 338 336 336 337 339 340 345 354 6
311 302 290 281 270 267 264 261 270 278 312 334 333 344 347 345 339 333 331 325 318 313 310 313 324 326 329 332 331 330 329 327 329 330 328 325 324 323 323 321 319 318 318 317 312 311 312 310 309
301 296 286 276 265 261 260 261 264 268 282 296 316 329 335 335 332 325 322 317 308 307 304 307 310 308 306 306 308 309 308 306 307 310 312 312 312 312 312 311 309 307 306 304 301 297 289 286 282
294 288 282 273 262 257 258 258 262 267 268 273 292 312 323 327 328 323 318 309 302 298 297 299 301 297 298 298 298 298 296 295 296 298 299 300 301 302 303 305 303 301 300 297 295 293 286 278 274
287 283 275 265 255 253 253 256 257 258 259 271 283 298 314 321 322 320 316 308 300 294 293 296 297 292 291 293 294 292 290 291 294 296 296 296 296 296 299 300 299 297 297 295 291 288 284 276 270
281 277 270 259 249 247 249 252 251 250 251 264 274 288 306 312 313 312 309 305 300 296 296 297 295 293 290 287 287 287 286 288 289 290 291 293 295 296 296 296 296 294 294 292 288 285 282 276 270
276 271 261 250 241 242 246 244 246 246 251 263 273 284 293 303 307 309 304 298 298 296 294 294 291 287 284 281 278 280 283 285 286 288 288 290 291 292 293 293 293 292 291 290 287 284 281 275 269
272 265 253 241 236 237 241 242 245 245 250 259 268 278 289 294 296 300 301 296 292 290 287 286 284 283 281 276 274 275 278 281 283 285 284 286 288 290 289 289 290 290 289 289 288 284 282 278 271
269 260 247 238 236 236 239 241 244 246 251 257 263 273 279 285 291 296 297 292 288 285 283 279 281 283 282 275 273 273 275 274 276 278 280 282 283 285 286 286 286 286 286 286 285 284 280 277 271
267 256 244 238 235 235 238 241 243 246 249 255 261 270 279 288 290 292 294 289 286 282 278 275 278 279 280 276 275 274 273 272 272 274 276 278 280 281 282 284 284 283 282 282 281 280 278 275 271
267 257 246 239 236 235 236 239 242 246 249 254 259 268 276 280 284 288 290 288 284 284 280 278 275 278 278 278 276 278 275 270 269 271 274 276 276 277 278 280 281 281 280 280 280 279 278 274 272
267 259 249 239 235 235 236 237 241 247 252 257 262 270 275 278 282 284 286 284 284 285 284 280 280 277 276 277 279 283 283 281 276 275 278 279 278 278 279 278 279 282 284 283 281 280 277 274 271
270 262 251 241 236 236 238 239 242 247 253 259 265 271 274 277 280 282 283 281 282 286 287 284 280 277 276 279 281 285 289 291 288 290 287 287 285 285 284 282 283 282 282 282 282 280 278 277 272
275 264 253 243 238 238 240 241 244 247 255 260 266 271 274 278 281 282 284 285 286 287 286 287 286 286 282 284 285 290 292 293 293 294 294 294 292 289 289 286 283 283 282 283 282 281 281 277 273
281 266 255 246 240 240 241 243 247 251 256 261 266 270 275 277 280 283 286 289 289 289 288 288 288 289 288 288 290 292 293 295 296 295 294 294 294 290 289 290 287 285 284 283 283 282 281 279 274
289 271 262 250 243 241 242 243 248 253 258 263 267 272 275 276 279 282 284 288 289 290 291 291 291 292 292 295 297 298 299 299 299 298 297 296 294 291 289 289 287 285 284 284 282 281 280 278 275
303 281 273 259 250 246 245 247 251 259 261 264 269 273 274 277 279 280 282 288 290 292 294 295 296 298 300 301 302 302 302 302 302 301 299 297 295 292 290 288 287 284 283 282 280 279 278 276 274
324 309 294 273 255 253 252 253 259 264 264 265 267 275 279 279 278 277 281 288 292 295 298 298 299 301 302 303 303 303 304 303 302 301 300 298 296 293 291 289 287 285 283 281 280 278 276 274 272
330 321 308 293 267 259 263 265 267 267 265 266 270 279 282 280 279 281 286 292 295 297 299 301 304 305 306 307 307 306 306 305 304 303 301 299 296 294 292 290 288 286 284 282 280 278 275 274 272
346 339 327 306 277 264 273 279 279 272 268 268 271 279 284 276 277 283 291 295 298 302 304 306 308 309 310 310 309 308 307 305 304 302 300 298 296 294 292 290 288 286 284 282 280 277 275 273 271
347 346 338 325 297 277 282 292 289 280 266 267 273 279 286 279 286 291 295 299 303 305 307 309 310 311 310 310 309 307 305 304 303 301 299 297 295 294 292 290 289 286 284 281 279 277 274 272 270
358 354 356 354 358 323 296 290 298 291 266 275 283 281 288 290 290 293 296 300 304 306 307 309 309 309 309 309 308 307 305 304 303 302 300 298 296 293 291 290 288 286 284 281 279 276 274 271 268
4 8 14 23 20 14 21 316 327 334 290 283 276 272 279 283 289 294 297 301 304 306 308 310 310 310 310 310 310 308 307 306 305 304 302 300 297 295 293 291 289 287 284 282 279 276 273 270 267
6 11 17 16 20 41 60 65 27 347 308 277 264 269 275 283 290 294 298 303 306 308 311 313 314 314 314 314 312 311 310 309 308 306 304 302 299 297 294 292 289 287 285 282 279 276 273 270 267
360 5 8 13 20 23 27 0 345 322 309 289 277 276 279 284 289 294 301 306 310 312 315 317 319 319 319 317 316 314 313 313 311 309 307 305 301 298 295 293 291 288 286 283 280 276 273 270 267
340 352 4 7 7 1 356 304 303 306 302 298 289 284 285 291 298 303 309 314 316 318 319 322 322 322 320 319 318 318 318 317 315 313 310 307 304 301 298 296 294 291 288 285 281 278 274 270 267
323 337 343 353 357 355 318 274 295 296 297 296 295 296 297 302 307 311 316 319 322 323 324 324 324 324 323 323 322 322 321 319 317 315 312 309 306 304 301 298 295 293 290 287 284 280 276 271 267
305 314 323 335 347 352 349 323 309 308 304 302 304 305 309 314 318 321 323 325 327 327 327 327 327 327 327 326 325 324 323 321 319 316 314 311 309 307 304 301 298 294 291 289 285 281 277 272 268
289 298 308 318 331 338 339 337 323 318 316 315 316 320 323 325 327 328 330 330 330 330 330 331 331 330 329 329 328 326 325 323 321 319 316 314 311 309 306 303 300 296 293 290 287 282 277 273 268